Showing default

KINEIS-5B, 62085

Orbit data source: Space-Track

KINEIS-5B, 62085 is a French payload satellite in SSO that was launched on Mon, 25 Nov 2024 UTC via an ELECTRON launch vehicle from the Rocket Lab Launch Complex (RLLC). Payload-class satellites include a variety of spacecraft equipped with specific instruments for various scientific and technological missions. These include communications satellites like Starlink; space stations such as the ISS; scientific satellites like the Hubble; Earth observation satellites from companies like Planet Labs, Umbra, and HawkEye 360; GPS; miniature CubeSats for education and research; and military/defense satellites.

Loading next visibility...
Identifier
62085, 2024-219E
Orbit
SSO
Country
Flag of FRFR
Related business
Manufacturer
KINEIS
Mission
Operational Commercial Communications
Bus & Motor
CUBESAT 16U, Unknown motor
Mass
28 kg wet, 28 kg dry
Launch date (UTC)
2024-11-25 (2 years ago)
Launch vehicle
ELECTRON
Launch site
Rocket Lab Launch Complex (RLLC)
Object type
Payload
Rocket body
Debris
Shape & HBR
Box + 2 Pan + 1 Ant, 1.0 m
Radar Cross Section
0.229 m², Medium (>0.1 m² and < 1m²)

Expand to show TLE details & history
Last TLE update: 13 hours ago

TLE from 13 hours ago
0 KINEIS-5B
1 62085U 24219E   26171.49952279  .00000806  00000-0  11794-3 0  9992
2 62085  98.0068 335.3145 0000597 221.7414 138.3751 14.78336190 84495
Epoch: 2026-06-20T11:59Z
TLE epoch observation values (Epoch: 2026-06-20T11:59:18.769Z)
Latitude
-0.00002°
Longitude
-113.22697°
Altitude
637.91 km
Speed
7.539 km/s
True Right ascension
22h 21m 15s
True Declination
0° 00' 00"
Sunlit
Object was in daylight at epoch
Visualization orbit readout
Latitude
Unknown
Longitude
Unknown
Altitude
Unknown
Speed
Unknown
Apparent Right ascension
Unknown
Apparent Declination
Unknown
Sunlit
N/A
Visualization observer readout
Local Sidereal Time
11:43:29
Azimuth
Unknown
Elevation
Unknown
Doppler factor
Unknown
Orbital elements
Apogee altitude
632.047 km
Perigee altitude
631.21 km
Semi-major axis
7,009.766 km
Eccentricity
0.00006
Inclination
98.0068°
RAAN
335.3145°
Arg. of periapsis
221.7414°
True anomaly
138.37964°
Mean anomaly
138.3751°
Eccentric anomaly
138.37737°
Mean motion
3.69818 °/min
Orbital period
97.35 mins
BSTAR
0.00011794
Loading maneuver chart data...
Computing Atmospheric mass density...
Loading historical data...
Loading historical data...
Loading historical data...
Loading historical data...
Loading historical data...
Loading historical data...
Loading historical data...

Documentation

Showing up to 5 results
|